Location: Christchurch
(43.5330°S, 172.6330°E)
Time: 08:44:23
(UTC+13:00)

Cosmos 1340 Rocket - Pass Details

Date: 24 January 2019
Orbit: 529 x 560 km, 81.2° (Epoch: 20 February)

Event Time Altitude Azimuth Distance (km) Brightness Sun altitude
Exits shadow 23:51:24 66° 110° (ESE) 598 2.8 -22.4°
Drops below altitude 10° 23:55:09 10° 165° (SSE) 1,831 6.1 -22.7°
Sets 23:57:21 0° 167° (SSE) 2,737 7.1 -22.9°
